Regional Weather Roundup
Issued by NWS

Home | Current Version | Previous Version | Graphics & Text | Print | Product List | Glossary On
Versions: 1 2 3 4 5 6 7 8 9 10 11 12 13 14 15 16 17 18 19 20 21 22 23 24 25 26 27 28 29 30 31 32 33 34 35 36 37 38 39 40 41 42 43 44 45 46 47 48 49 50
000
ASUS43 KIND 262159
RWRIN

WEATHER ROUNDUP FOR INDIANA
NATIONAL WEATHER SERVICE INDIANAPOLIS IN
600 PM EDT SUN APR 26 2015

NOTE: "FAIR" INDICATES FEW OR NO CLOUDS BELOW 12,000 FEET WITH NO
SIGNIFICANT WEATHER AND/OR OBSTRUCTIONS TO VISIBILITY.

* - STATION DOES NOT REPORT WEATHER SUCH AS PRECIPITATION OR FOG.

+ - STATION NOT QUALITY CONTROLLED BY THE NATIONAL WEATHER SERVICE.
    USE DATA WITH CAUTION...ESPECIALLY DEWPOINT AND RELATIVE
    HUMIDITY OBSERVATIONS.

INZ001>003-010>013-019-020-262300-
NORTHWEST INDIANA

CITY           SKY/WX    TMP DP  RH WIND       PRES   REMARKS
GARY /AIRPORT/ SUNNY     50  28  43 N20       30.01F
KNOX *+        SUNNY     52  10  19 N23       29.95S

$$

LMZ046-743>745-262300-
SOUTHERN LAKE MICHIGAN

STATION/POSITION TIME  TEMP    WIND        PRES    WAVE
                       AIR SEA DIR/SP/G            HT
                 (UTC) (F)     (DEG/KT/KT) (MB)    (FT)
BURNS HARBOR     2100   42     360/ 14/ 17 1016.3F
MICHIGAN CITY    2100   39      10/  9/ 11   N/A
5NW MICH CITY    2100   40 45  360/ 14/ 17   N/A     4

$$

INZ004-005-014>016-021>024-262300-
NORTH CENTRAL INDIANA

CITY           SKY/WX    TMP DP  RH WIND       PRES   REMARKS
ELKHART        SUNNY     55  25  30 NW12G20   29.93S
GOSHEN         PTSUNNY   56  31  38 NE15      29.91S
SOUTH BEND     SUNNY     54  29  38 N21       29.96S
WARSAW +       PTSUNNY   57  32  38 N10G20    29.90F

$$

INZ006>009-017-018-025>027-262300-
NORTHEAST INDIANA

CITY           SKY/WX    TMP DP  RH WIND       PRES   REMARKS
ANGOLA *+      MOSUNNY   55  30  38 NE8       29.90S
FORT WAYNE     PTSUNNY   58  34  40 N15       29.89F

$$

INZ028-029-035-036-043>045-051>053-262300-
WEST CENTRAL INDIANA

CITY           SKY/WX    TMP DP  RH WIND       PRES   REMARKS
CRAWFORDSVL +  PTSUNNY   55  28  35 N10G20    29.91S
GREENCASTLE +  PTSUNNY   55  32  41 NE14      29.91S
LAFAYETTE      SUNNY     55  32  41 N16       29.93R
TERRE HAUTE    SUNNY     58  37  45 NE9G18    29.91R

$$

INZ030>032-037>040-046>048-054>057-064-065-262300-
CENTRAL INDIANA

CITY           SKY/WX    TMP DP  RH WIND       PRES   REMARKS
COLUMBUS       PTSUNNY   57  32  38 N14       29.89R
FRANKFORT +    MOSUNNY   55  35  46 N12G20    29.93S
GREENWOOD *+   MOSUNNY   57  32  38 N10G17    29.89S
INDIANAPOLIS   MOSUNNY   57  33  40 N17       29.89S
-EAGLE CREEK   PTSUNNY   57  35  43 N14G21    29.89F
KOKOMO *+      MOSUNNY   57  36  44 N10G21    29.90S
MT COMFORT *+  MOSUNNY   57  25  28 N16       29.89S
SHELBYVILLE    PTSUNNY   59  36  42 NW12      29.88S

$$

INZ033-034-041-042-049-050-058-059-262300-
EAST CENTRAL INDIANA

CITY           SKY/WX    TMP DP  RH WIND       PRES   REMARKS
MUNCIE         PTSUNNY   57  34  41 N14       29.88F

$$

INZ060-061-067>069-081>083-085>088-262300-
SOUTHWEST INDIANA

CITY           SKY/WX    TMP DP  RH WIND       PRES   REMARKS
EVANSVILLE     SUNNY     64  35  34 N13       29.87S
HUNTINGBURG *+ SUNNY     63  37  39 N10G17    29.86R

$$

INZ062-063-066-070>080-084-089>092-262300-
SOUTH CENTRAL AND SOUTHEAST INDIANA

CITY           SKY/WX    TMP DP  RH WIND       PRES   REMARKS
BLOOMINGTON    SUNNY     58  36  43 N14       29.88R
MADISON *+     SUNNY     61  32  33 NW7       29.86S
SEYMOUR +      SUNNY     61  37  41 N15       29.87R

$$



USA.gov is the U.S. government's official web portal to all federal, state and local government web resources and services.